Weather History for Pensacola NAS, FL

Change the Weather History Date:

Monday, May 20, 2013

  Actual Average Record
Temperature  
Mean Temperature 77 °F -  
Max Temperature 82 °F 81 °F 91 °F (1998)
Min Temperature 72 °F 64 °F 46 °F (2003)
Cooling Degree Days 12    
Growing Degree Days 27 (Base 50)    
Moisture  
Dew Point 71 °F    
Average Humidity 85    
Maximum Humidity 96    
Minimum Humidity 69    
Precipitation  
Precipitation 0.00 in - - ()
Sea Level Pressure  
Sea Level Pressure 30.02 in    
Wind  
Wind Speed 8 mph (South)    
Max Wind Speed 13 mph    
Max Gust Speed -    
Visibility 10 miles    
Events      
Averages and records for this station are not official NWS values.
T = Trace of Precipitation, MM = Missing Value Source: NWS Daily Summary

Daily Weather History Graph

Daily Weather History Graph

Search for Another Location

Airport:

Trip Planner

Search our weather history database for the weather conditions in past years. The results will help you decide how hot, cold, wet, or windy it might be!

Date:

Astronomy

May. 20, 2013 Rise Set
Actual Time 5:52 AM CDT 7:39 PM CDT
Civil Twilight 5:25 AM CDT 8:06 PM CDT
Nautical Twilight 4:53 AM CDT 8:38 PM CDT
Astronomical Twilight 4:19 AM CDT 9:12 PM CDT
Moon 3:05 PM CDT (5/20) 2:26 AM CDT (5/20)
Length of Visible Light 14h 40m
Length of Day
13h 47m
Waxing Gibbous, 75% of the Moon is Illuminated
May 20
Waxing Gibbous
May 24
Full
May 31
Last Quarter
Jun 8
New
Jun 16
First Quarter

Hourly Weather History & Observations

Time (CDT) Temp. Heat Index Dew Point Humidity Pressure Visibility Wind Dir Wind Speed Gust Speed Precip Events Conditions
12:56 AM 73.9 °F - 71.1 °F 91% 30.06 in 10.0 mi SSE 6.9 mph - N/A   Partly Cloudy
1:56 AM 72.0 °F - 70.0 °F 93% 30.04 in 10.0 mi SSE 5.8 mph - N/A   Clear
2:47 AM 73.4 °F - 71.6 °F 94% 30.02 in 10.0 mi SSE 8.1 mph - N/A   Scattered Clouds
2:56 AM 73.9 °F - 72.0 °F 93% 30.02 in 10.0 mi South 8.1 mph - N/A   Partly Cloudy
3:56 AM 73.0 °F - 71.1 °F 93% 30.00 in 10.0 mi South 8.1 mph - N/A   Partly Cloudy
4:56 AM 73.0 °F - 72.0 °F 96% 29.99 in 10.0 mi SSW 9.2 mph - N/A   Partly Cloudy
5:56 AM 73.0 °F - 72.0 °F 96% 30.00 in 10.0 mi SW 8.1 mph - N/A   Mostly Cloudy
6:20 AM 73.4 °F - 71.6 °F 94% 29.99 in 10.0 mi SW 8.1 mph - N/A   Mostly Cloudy
6:49 AM 73.4 °F - 71.6 °F 94% 30.01 in 10.0 mi SW 6.9 mph - N/A   Mostly Cloudy
6:56 AM 73.9 °F - 72.0 °F 93% 30.02 in 10.0 mi SW 6.9 mph - N/A   Mostly Cloudy
7:21 AM 75.2 °F - 71.6 °F 89% 30.02 in 10.0 mi SW 8.1 mph - N/A   Mostly Cloudy
7:56 AM 77.0 °F - 72.0 °F 84% 30.03 in 10.0 mi SW 8.1 mph - N/A   Scattered Clouds
8:56 AM 80.1 °F 83.8 °F 72.0 °F 76% 30.05 in 10.0 mi SSW 6.9 mph - N/A   Scattered Clouds
9:56 AM 80.1 °F 83.2 °F 70.0 °F 71% 30.06 in 10.0 mi SSE 4.6 mph - N/A   Scattered Clouds
10:56 AM 80.1 °F 83.6 °F 71.1 °F 74% 30.07 in 10.0 mi SE 8.1 mph - N/A   Scattered Clouds
11:56 AM 81.0 °F 84.9 °F 71.1 °F 72% 30.07 in 10.0 mi SE 6.9 mph - N/A   Scattered Clouds
12:56 PM 81.0 °F 85.2 °F 72.0 °F 74% 30.06 in 10.0 mi SSE 10.4 mph - N/A   Scattered Clouds
1:56 PM 82.0 °F 86.3 °F 71.1 °F 69% 30.05 in 10.0 mi SE 11.5 mph - N/A   Mostly Cloudy
2:56 PM 82.0 °F 86.3 °F 71.1 °F 69% 30.04 in 10.0 mi SSE 10.4 mph - N/A   Mostly Cloudy
3:56 PM 81.0 °F 84.9 °F 71.1 °F 72% 30.03 in 10.0 mi SSE 9.2 mph - N/A   Mostly Cloudy
4:56 PM 81.0 °F 84.9 °F 71.1 °F 72% 30.02 in 10.0 mi South 11.5 mph - N/A   Scattered Clouds
5:56 PM 79.0 °F - 71.1 °F 77% 29.99 in 10.0 mi South 12.7 mph - N/A   Partly Cloudy
6:56 PM 77.0 °F - 72.0 °F 84% 29.99 in 10.0 mi South 10.4 mph - N/A   Partly Cloudy
7:56 PM 75.0 °F - 71.1 °F 87% 29.99 in 10.0 mi South 6.9 mph - N/A   Partly Cloudy
8:56 PM 75.0 °F - 72.0 °F 90% 30.00 in 10.0 mi South 6.9 mph - N/A   Scattered Clouds
9:56 PM 73.9 °F - 71.1 °F 91% 30.01 in 10.0 mi South 4.6 mph - N/A   Clear
10:56 PM 73.9 °F - 71.1 °F 91% 30.01 in 10.0 mi South 6.9 mph - N/A   Partly Cloudy
11:56 PM 73.9 °F - 72.0 °F 93% 30.01 in 10.0 mi SSW 6.9 mph - N/A   Partly Cloudy